Location: Aix-en-Ergny
(50.5839°N, 1.9996°E)
Time: 00:16:47
(UTC+00:00)

COSMOS 2428 - Pass Details

Date: 23 October 2019
Orbit: 845 x 857 km, 70.9° (Epoch: 11 November)

Event Time Altitude Azimuth Distance (km) Brightness Sun altitude
Exits shadow 02:47:56 41° 41° (NE) 1,214 3.8 -34.7°
Drops below altitude 10° 02:51:34 10° 32° (NNE) 2,478 5.7 -34.1°
Sets 02:54:01 0° 31° (NNE) 3,418 6.6 -33.8°
